Location: Cointrin
(46.2167°N, 6.1167°E)
Time: 06:09:50
(UTC+00:00)

Okean O Rocket - Pass Details

Date: 08 February 2023
Orbit: 620 x 643 km, 98.1° (Epoch: 25 March)

Event Time Altitude Azimuth Distance (km) Brightness Sun altitude
Rises 17:46:50 0° 134° (SE) 2,921 4.7 -10.2°
Reaches altitude 10° 17:49:17 10° 121° (ESE) 2,021 3.8 -10.6°
Maximum altitude 17:52:56 26° 65° (ENE) 1,256 2.6 -11.3°
Drops below altitude 10° 17:56:37 10° 9° (N) 2,044 4.0 -11.9°
Sets 17:59:07 0° 357° (N) 2,961 5.0 -12.3°
